HAZ1079 ZUUU-ZLXY

Flight info

Callsign HAZ1079
Flight time 1h 12m
Altitude 32000
Route ZUUU20R GURE9W GURET DCT NSH NSH9B ZLXYXY911I06LZ
Aircraft A320/M-SDE2E3FGHIJ1RWXY/LB1

Departure

Time 2026-04-24 14:09
Airport Chengdu Shuangliu International Airport (ZUUU)

Arrival

Time 2026-04-24 15:22
Airport Xi'an Xianyang International Airport (ZLXY)
Time Latitude Longitude Altitude Speed Heading
2026-04-24 13:56 30.58467 103.95473 1637 ft 0 kts 70°
2026-04-24 14:01 30.58463 103.95485 1637 ft 0 kts 70°
2026-04-24 14:02 30.58462 103.95481 1637 ft 0 kts 94°
2026-04-24 14:03 30.58462 103.95475 1637 ft 0 kts 99°
2026-04-24 14:03 30.58465 103.95462 1637 ft 1 kts 87°
2026-04-24 14:03 30.58461 103.95445 1637 ft 2 kts 74°
2026-04-24 14:03 30.58458 103.95428 1637 ft 2 kts 77°
2026-04-24 14:04 30.58454 103.95412 1637 ft 2 kts 76°
2026-04-24 14:04 30.58451 103.95394 1637 ft 2 kts 77°
2026-04-24 14:04 30.58448 103.95383 1637 ft 0 kts 76°
2026-04-24 14:04 30.58447 103.95377 1637 ft 0 kts 36°
2026-04-24 14:05 30.58442 103.95374 1637 ft 0 kts 20°
2026-04-24 14:05 30.58446 103.95376 1637 ft 3 kts 20°
2026-04-24 14:05 30.58458 103.95381 1637 ft 0 kts 19°
2026-04-24 14:06 30.58473 103.95386 1637 ft 10 kts 11°
2026-04-24 14:06 30.58547 103.95337 1637 ft 13 kts
2026-04-24 14:06 30.58658 103.95385 1637 ft 13 kts 15°
2026-04-24 14:07 30.58728 103.95333 1637 ft 14 kts 358°
2026-04-24 14:07 30.58867 103.95393 1637 ft 24 kts 23°
2026-04-24 14:07 30.59022 103.95466 1637 ft 23 kts 22°
2026-04-24 14:07 30.59165 103.95533 1637 ft 21 kts 22°
2026-04-24 14:08 30.59277 103.95568 1637 ft 13 kts 338°
2026-04-24 14:08 30.59319 103.95473 1637 ft 13 kts 292°
2026-04-24 14:08 30.59313 103.95386 1636 ft 13 kts 201°
2026-04-24 14:08 30.59207 103.95338 1637 ft 32 kts 202°
2026-04-24 14:09 30.58742 103.95121 1637 ft 109 kts 201°
2026-04-24 14:09 30.57844 103.94698 1651 ft 168 kts 202°
2026-04-24 14:09 30.56701 103.94151 2080 ft 185 kts 200°
2026-04-24 14:09 30.55477 103.93611 2820 ft 192 kts 201°
2026-04-24 14:10 30.54666 103.93208 3363 ft 194 kts 205°
2026-04-24 14:10 30.52998 103.92303 4293 ft 211 kts 203°
2026-04-24 14:10 30.51589 103.91605 4900 ft 228 kts 203°
2026-04-24 14:10 30.50089 103.90867 5536 ft 242 kts 205°
2026-04-24 14:11 30.48752 103.89746 6325 ft 246 kts 234°
2026-04-24 14:11 30.48091 103.87946 7180 ft 246 kts 266°
2026-04-24 14:11 30.49356 103.84514 8783 ft 245 kts 327°
2026-04-24 14:12 30.50913 103.83814 9569 ft 245 kts 357°
2026-04-24 14:12 30.52568 103.84122 10355 ft 246 kts 24°
2026-04-24 14:12 30.54104 103.84973 11166 ft 248 kts 27°
2026-04-24 14:12 30.55633 103.85859 11935 ft 251 kts 27°
2026-04-24 14:13 30.57187 103.86750 12711 ft 253 kts 26°
2026-04-24 14:13 30.58757 103.87640 13484 ft 255 kts 26°
2026-04-24 14:13 30.60343 103.88531 14243 ft 257 kts 25°
2026-04-24 14:13 30.61946 103.89426 14987 ft 259 kts 25°
2026-04-24 14:14 30.63580 103.90337 15720 ft 261 kts 25°
2026-04-24 14:14 30.65209 103.91243 16430 ft 263 kts 24°
2026-04-24 14:14 30.68513 103.93081 17797 ft 268 kts 24°
2026-04-24 14:15 30.70188 103.94012 18456 ft 271 kts 24°
2026-04-24 14:15 30.71864 103.94997 19091 ft 275 kts 31°
2026-04-24 14:15 30.73258 103.96537 19677 ft 285 kts 53°
2026-04-24 14:15 30.74138 103.98636 20285 ft 292 kts 64°
2026-04-24 14:16 30.74853 104.00841 20847 ft 297 kts 65°
2026-04-24 14:16 30.75575 104.03119 21381 ft 302 kts 65°
2026-04-24 14:16 30.76302 104.05406 21907 ft 306 kts 65°
2026-04-24 14:17 30.77809 104.10091 22932 ft 315 kts 65°
2026-04-24 14:17 30.78582 104.12483 23423 ft 320 kts 65°
2026-04-24 14:17 30.80176 104.17404 24382 ft 329 kts 65°
2026-04-24 14:18 30.80983 104.19896 24845 ft 334 kts 65°
2026-04-24 14:18 30.81813 104.22463 25300 ft 338 kts 65°
2026-04-24 14:18 30.82645 104.25031 25741 ft 343 kts 65°
2026-04-24 14:18 30.83491 104.27649 26176 ft 347 kts 65°
2026-04-24 14:19 30.84057 104.29402 26457 ft 350 kts 65°
2026-04-24 14:19 30.85205 104.32961 27005 ft 356 kts 65°
2026-04-24 14:19 30.86080 104.35678 27410 ft 360 kts 65°
2026-04-24 14:19 30.86953 104.38403 27801 ft 365 kts 67°
2026-04-24 14:20 30.87757 104.41258 28196 ft 370 kts 69°
2026-04-24 14:20 30.88503 104.44102 28578 ft 374 kts 70°
2026-04-24 14:20 30.89258 104.47019 28952 ft 378 kts 70°
2026-04-24 14:20 30.90025 104.49983 29317 ft 382 kts 70°
2026-04-24 14:21 30.90793 104.52945 29677 ft 386 kts 70°
2026-04-24 14:21 30.91568 104.55926 30025 ft 390 kts 70°
2026-04-24 14:21 30.92362 104.58980 30369 ft 394 kts 70°
2026-04-24 14:21 30.93154 104.62031 30700 ft 398 kts 70°
2026-04-24 14:22 30.93965 104.65147 31025 ft 402 kts 71°
2026-04-24 14:22 30.94778 104.68276 31321 ft 406 kts 71°
2026-04-24 14:22 30.96443 104.74599 31908 ft 414 kts 76°
2026-04-24 14:23 30.97266 104.77843 32002 ft 424 kts 76°
2026-04-24 14:23 30.98123 104.81210 32008 ft 436 kts 75°
2026-04-24 14:23 30.98990 104.84598 32010 ft 447 kts 75°
2026-04-24 14:23 30.99892 104.88110 32012 ft 459 kts 75°
2026-04-24 14:24 31.00876 104.91689 32010 ft 470 kts 72°
2026-04-24 14:24 31.02066 104.95307 32011 ft 481 kts 68°
2026-04-24 14:24 31.03474 104.98891 32010 ft 491 kts 64°
2026-04-24 14:25 31.06911 105.05882 32012 ft 497 kts 53°
2026-04-24 14:25 31.10669 105.12620 32008 ft 495 kts 53°
2026-04-24 14:26 31.14388 105.19327 32008 ft 495 kts 53°
2026-04-24 14:26 31.18110 105.26141 32008 ft 496 kts 54°
2026-04-24 14:27 31.21787 105.32903 32008 ft 496 kts 54°
2026-04-24 14:27 31.25522 105.39651 32010 ft 498 kts 52°
2026-04-24 14:28 31.29395 105.46370 31857 ft 495 kts 52°
2026-04-24 14:28 31.31305 105.49687 31679 ft 491 kts 52°
2026-04-24 14:28 31.33194 105.52979 31518 ft 489 kts 52°
2026-04-24 14:28 31.35080 105.56269 31315 ft 488 kts 52°
2026-04-24 14:29 31.36961 105.59561 30670 ft 488 kts 52°
2026-04-24 14:29 31.38832 105.62843 30046 ft 485 kts 51°
2026-04-24 14:29 31.40711 105.66148 29412 ft 482 kts 52°
2026-04-24 14:29 31.42556 105.69399 28787 ft 479 kts 52°
2026-04-24 14:30 31.43773 105.71547 28372 ft 476 kts 52°
2026-04-24 14:30 31.46200 105.75826 27539 ft 471 kts 52°
2026-04-24 14:30 31.48000 105.79001 26915 ft 468 kts 52°
2026-04-24 14:30 31.49797 105.82171 26286 ft 463 kts 52°
2026-04-24 14:31 31.51572 105.85302 25660 ft 459 kts 52°
2026-04-24 14:31 31.53315 105.88381 25039 ft 455 kts 52°
2026-04-24 14:31 31.55070 105.91483 24408 ft 451 kts 52°
2026-04-24 14:31 31.56794 105.94532 23782 ft 447 kts 52°
2026-04-24 14:32 31.58486 105.97525 23162 ft 443 kts 52°
2026-04-24 14:32 31.60178 106.00520 22536 ft 439 kts 52°
2026-04-24 14:32 31.61860 106.03500 21907 ft 435 kts 53°
2026-04-24 14:32 31.63510 106.06427 21284 ft 430 kts 53°
2026-04-24 14:33 31.65154 106.09345 20656 ft 426 kts 53°
2026-04-24 14:33 31.66775 106.12223 19911 ft 425 kts 53°
2026-04-24 14:33 31.68403 106.15113 19042 ft 425 kts 54°
2026-04-24 14:33 31.70020 106.17990 18588 ft 415 kts 54°
2026-04-24 14:34 31.71578 106.20767 18211 ft 405 kts 54°
2026-04-24 14:34 31.73117 106.23507 17833 ft 395 kts 54°
2026-04-24 14:34 31.74597 106.26140 17468 ft 385 kts 54°
2026-04-24 14:34 31.76055 106.28735 17105 ft 376 kts 54°
2026-04-24 14:35 31.77481 106.31272 16750 ft 368 kts 54°
2026-04-24 14:35 31.78873 106.33750 16402 ft 360 kts 54°
2026-04-24 14:35 31.80248 106.36200 16056 ft 352 kts 54°
2026-04-24 14:35 31.81584 106.38580 15715 ft 345 kts 55°
2026-04-24 14:36 31.82890 106.40910 15388 ft 340 kts 55°
2026-04-24 14:36 31.84195 106.43243 15140 ft 340 kts 55°
2026-04-24 14:36 31.85488 106.45557 15040 ft 339 kts 55°
2026-04-24 14:36 31.86798 106.47907 15036 ft 340 kts 55°
2026-04-24 14:37 31.88092 106.50231 15034 ft 340 kts 55°
2026-04-24 14:37 31.89377 106.52542 15033 ft 340 kts 55°
2026-04-24 14:37 31.90712 106.54942 15037 ft 364 kts 55°
2026-04-24 14:37 31.92146 106.57526 15035 ft 383 kts 55°
2026-04-24 14:38 31.93602 106.60158 15032 ft 388 kts 56°
2026-04-24 14:38 31.95087 106.62843 15032 ft 389 kts 55°
2026-04-24 14:38 31.96569 106.65522 15036 ft 395 kts 56°
2026-04-24 14:38 31.98095 106.68277 15035 ft 410 kts 56°
2026-04-24 14:39 31.99674 106.71130 15033 ft 412 kts 56°
2026-04-24 14:39 32.01246 106.73969 15033 ft 413 kts 56°
2026-04-24 14:39 32.02795 106.76769 15033 ft 413 kts 56°
2026-04-24 14:39 32.04368 106.79613 15033 ft 413 kts 56°
2026-04-24 14:40 32.05924 106.82426 15033 ft 413 kts 56°
2026-04-24 14:40 32.07494 106.85261 15033 ft 412 kts 56°
2026-04-24 14:40 32.09076 106.88111 15029 ft 413 kts 57°
2026-04-24 14:40 32.10662 106.90962 15031 ft 416 kts 58°
2026-04-24 14:41 32.12245 106.93828 15030 ft 419 kts 58°
2026-04-24 14:41 32.13836 106.96717 15030 ft 421 kts 58°
2026-04-24 14:41 32.15425 106.99607 15030 ft 422 kts 58°
2026-04-24 14:41 32.17015 107.02499 15030 ft 425 kts 58°
2026-04-24 14:42 32.18108 107.04489 15030 ft 427 kts 58°
2026-04-24 14:42 32.20247 107.08382 15008 ft 428 kts 58°
2026-04-24 14:42 32.21879 107.11353 14756 ft 426 kts 58°
2026-04-24 14:42 32.23468 107.14252 14509 ft 424 kts 58°
2026-04-24 14:43 32.25044 107.17211 14255 ft 421 kts 61°
2026-04-24 14:43 32.26392 107.20256 14006 ft 419 kts 66°
2026-04-24 14:43 32.27500 107.23417 13757 ft 416 kts 70°
2026-04-24 14:43 32.28503 107.26633 13507 ft 414 kts 71°
2026-04-24 14:44 32.29471 107.29815 13258 ft 412 kts 71°
2026-04-24 14:44 32.30434 107.32983 13047 ft 410 kts 71°
2026-04-24 14:44 32.31414 107.36192 13018 ft 410 kts 71°
2026-04-24 14:44 32.32376 107.39336 13014 ft 410 kts 71°
2026-04-24 14:45 32.33353 107.42526 13011 ft 410 kts 71°
2026-04-24 14:45 32.34318 107.45675 13009 ft 410 kts 71°
2026-04-24 14:45 32.35290 107.48850 13008 ft 410 kts 71°
2026-04-24 14:45 32.36261 107.52021 13007 ft 410 kts 71°
2026-04-24 14:46 32.37234 107.55200 13007 ft 410 kts 71°
2026-04-24 14:46 32.38202 107.58370 13006 ft 410 kts 71°
2026-04-24 14:46 32.39177 107.61562 13006 ft 410 kts 71°
2026-04-24 14:46 32.40145 107.64736 13006 ft 410 kts 71°
2026-04-24 14:47 32.41113 107.67911 13006 ft 410 kts 71°
2026-04-24 14:47 32.42080 107.71088 13006 ft 410 kts 71°
2026-04-24 14:47 32.43037 107.74233 13006 ft 410 kts 71°
2026-04-24 14:47 32.44000 107.77404 13006 ft 410 kts 71°
2026-04-24 14:48 32.44974 107.80611 13006 ft 410 kts 71°
2026-04-24 14:48 32.45936 107.83783 13006 ft 410 kts 71°
2026-04-24 14:48 32.46902 107.86968 13006 ft 410 kts 71°
2026-04-24 14:48 32.47860 107.90128 13006 ft 410 kts 71°
2026-04-24 14:49 32.48819 107.93302 13006 ft 410 kts 71°
2026-04-24 14:49 32.49783 107.96494 13006 ft 410 kts 71°
2026-04-24 14:49 32.50798 107.99676 12999 ft 411 kts 65°
2026-04-24 14:49 32.52455 108.02385 12986 ft 414 kts 43°
2026-04-24 14:50 32.54927 108.04183 13003 ft 416 kts 22°
2026-04-24 14:50 32.57677 108.05215 13012 ft 417 kts 15°
2026-04-24 14:50 32.60497 108.06087 13009 ft 417 kts 15°
2026-04-24 14:50 32.63287 108.06953 13007 ft 417 kts 15°
2026-04-24 14:51 32.66094 108.07862 13007 ft 416 kts 16°
2026-04-24 14:51 32.68851 108.08787 13006 ft 416 kts 16°
2026-04-24 14:51 32.71640 108.09746 13006 ft 416 kts 17°
2026-04-24 14:51 32.74409 108.10711 13006 ft 416 kts 17°
2026-04-24 14:52 32.77213 108.11696 13006 ft 416 kts 17°
2026-04-24 14:52 32.79981 108.12673 13006 ft 416 kts 17°
2026-04-24 14:52 32.82761 108.13657 13006 ft 416 kts 17°
2026-04-24 14:52 32.85535 108.14640 13006 ft 416 kts 17°
2026-04-24 14:53 32.88310 108.15625 13006 ft 416 kts 17°
2026-04-24 14:53 32.91074 108.16607 13006 ft 416 kts 17°
2026-04-24 14:53 32.93821 108.17584 13006 ft 416 kts 17°
2026-04-24 14:53 32.96614 108.18577 13014 ft 418 kts 17°
2026-04-24 14:54 32.99432 108.19579 13375 ft 426 kts 17°
2026-04-24 14:54 33.02244 108.20578 14183 ft 425 kts 18°
2026-04-24 14:54 33.05096 108.21591 14734 ft 426 kts 18°
2026-04-24 14:54 33.07919 108.22599 14994 ft 423 kts 17°
2026-04-24 14:55 33.09771 108.23270 15006 ft 415 kts 17°
2026-04-24 14:55 33.13436 108.24596 15008 ft 409 kts 17°
2026-04-24 14:55 33.16145 108.25566 15007 ft 408 kts 17°
2026-04-24 14:55 33.18877 108.26541 15007 ft 408 kts 17°
2026-04-24 14:56 33.21617 108.27519 15007 ft 408 kts 17°
2026-04-24 14:56 33.24342 108.28493 15006 ft 408 kts 17°
2026-04-24 14:56 33.27054 108.29465 15006 ft 408 kts 17°
2026-04-24 14:56 33.29769 108.30472 15006 ft 408 kts 19°
2026-04-24 14:57 33.32404 108.31657 15006 ft 408 kts 22°
2026-04-24 14:57 33.34999 108.33068 15006 ft 408 kts 25°
2026-04-24 14:57 33.37529 108.34557 15007 ft 408 kts 26°
2026-04-24 14:57 33.40097 108.36087 15006 ft 408 kts 26°
2026-04-24 14:58 33.42616 108.37590 15061 ft 412 kts 26°
2026-04-24 14:58 33.45221 108.39145 15635 ft 416 kts 26°
2026-04-24 14:58 33.47771 108.40668 16374 ft 415 kts 26°
2026-04-24 14:58 33.50360 108.42213 16837 ft 416 kts 25°
2026-04-24 14:59 33.52948 108.43755 17001 ft 416 kts 25°
2026-04-24 14:59 33.55571 108.45315 17003 ft 415 kts 25°
2026-04-24 14:59 33.58133 108.46840 17005 ft 415 kts 25°
2026-04-24 14:59 33.60709 108.48374 17006 ft 415 kts 25°
2026-04-24 15:00 33.63298 108.49918 17006 ft 415 kts 25°
2026-04-24 15:00 33.65885 108.51461 17006 ft 415 kts 25°
2026-04-24 15:00 33.68485 108.53014 17006 ft 415 kts 25°
2026-04-24 15:00 33.71048 108.54547 17006 ft 415 kts 25°
2026-04-24 15:01 33.73626 108.56091 17006 ft 415 kts 25°
2026-04-24 15:01 33.76212 108.57642 17001 ft 414 kts 25°
2026-04-24 15:01 33.78760 108.59172 16702 ft 407 kts 25°
2026-04-24 15:01 33.81275 108.60678 15915 ft 406 kts 26°
2026-04-24 15:02 33.83804 108.62193 15067 ft 406 kts 26°
2026-04-24 15:02 33.86312 108.63698 14292 ft 404 kts 26°
2026-04-24 15:02 33.88799 108.65193 13756 ft 395 kts 27°
2026-04-24 15:02 33.91205 108.66640 13515 ft 380 kts 27°
2026-04-24 15:03 33.92748 108.67568 13355 ft 371 kts 27°
2026-04-24 15:03 33.95785 108.69392 13051 ft 354 kts 27°
2026-04-24 15:03 33.97938 108.70686 12837 ft 342 kts 27°
2026-04-24 15:03 34.00042 108.71952 12592 ft 332 kts 27°
2026-04-24 15:04 34.02086 108.73181 12150 ft 330 kts 27°
2026-04-24 15:04 34.04135 108.74416 11639 ft 329 kts 27°
2026-04-24 15:04 34.06161 108.75639 11162 ft 327 kts 27°
2026-04-24 15:04 34.08195 108.76868 10697 ft 325 kts 27°
2026-04-24 15:05 34.10195 108.78076 10420 ft 317 kts 27°
2026-04-24 15:05 34.12124 108.79244 10231 ft 306 kts 27°
2026-04-24 15:05 34.13997 108.80380 10045 ft 296 kts 27°
2026-04-24 15:05 34.15824 108.81487 9846 ft 287 kts 27°
2026-04-24 15:06 34.17590 108.82558 9516 ft 284 kts 27°
2026-04-24 15:06 34.19364 108.83636 9127 ft 283 kts 27°
2026-04-24 15:06 34.21164 108.84535 8803 ft 280 kts 10°
2026-04-24 15:06 34.23011 108.84344 8541 ft 265 kts 337°
2026-04-24 15:07 34.24504 108.83086 8149 ft 257 kts 319°
2026-04-24 15:07 34.25806 108.81606 8009 ft 258 kts 317°
2026-04-24 15:07 34.27123 108.80113 8009 ft 261 kts 318°
2026-04-24 15:07 34.28440 108.78656 7994 ft 253 kts 319°
2026-04-24 15:08 34.29621 108.77123 7982 ft 246 kts 298°
2026-04-24 15:08 34.29976 108.75118 7992 ft 247 kts 263°
2026-04-24 15:08 34.29644 108.73113 7966 ft 242 kts 256°
2026-04-24 15:08 34.29236 108.71114 7618 ft 244 kts 256°
2026-04-24 15:09 34.28837 108.69133 7286 ft 244 kts 256°
2026-04-24 15:09 34.28449 108.67146 6991 ft 243 kts 257°
2026-04-24 15:09 34.28073 108.65143 6690 ft 241 kts 257°
2026-04-24 15:09 34.27707 108.63172 6390 ft 241 kts 257°
2026-04-24 15:10 34.27340 108.61197 6095 ft 239 kts 257°
2026-04-24 15:10 34.26980 108.59255 5817 ft 238 kts 258°
2026-04-24 15:10 34.26615 108.57282 5505 ft 237 kts 257°
2026-04-24 15:10 34.26262 108.55353 5221 ft 236 kts 257°
2026-04-24 15:11 34.25907 108.53431 4936 ft 235 kts 257°
2026-04-24 15:11 34.25546 108.51493 4643 ft 234 kts 257°
2026-04-24 15:11 34.25190 108.49586 4512 ft 231 kts 257°
2026-04-24 15:11 34.24833 108.47672 4509 ft 234 kts 257°
2026-04-24 15:12 34.24476 108.45750 4507 ft 233 kts 257°
2026-04-24 15:12 34.23757 108.41906 4505 ft 234 kts 257°
2026-04-24 15:12 34.23208 108.40070 4486 ft 233 kts 232°
2026-04-24 15:13 34.21937 108.38943 4496 ft 230 kts 194°
2026-04-24 15:13 34.20364 108.38924 4502 ft 228 kts 160°
2026-04-24 15:13 34.19067 108.39971 4505 ft 227 kts 127°
2026-04-24 15:13 34.18479 108.41710 4499 ft 220 kts 93°
2026-04-24 15:14 34.18744 108.43438 4491 ft 209 kts 63°
2026-04-24 15:14 34.19572 108.44870 4513 ft 206 kts 49°
2026-04-24 15:14 34.20565 108.46139 4508 ft 207 kts 47°
2026-04-24 15:14 34.21568 108.47383 4506 ft 208 kts 47°
2026-04-24 15:15 34.22567 108.48652 4437 ft 204 kts 47°
2026-04-24 15:15 34.23517 108.49885 4251 ft 203 kts 48°
2026-04-24 15:15 34.24498 108.51173 4230 ft 211 kts 49°
2026-04-24 15:15 34.25491 108.52487 4712 ft 211 kts 49°
2026-04-24 15:16 34.26477 108.53795 4977 ft 211 kts 49°
2026-04-24 15:16 34.27467 108.55113 5000 ft 209 kts 49°
2026-04-24 15:16 34.28416 108.56379 5097 ft 194 kts 48°
2026-04-24 15:16 34.29290 108.57536 5053 ft 177 kts 49°
2026-04-24 15:17 34.30077 108.58576 4992 ft 159 kts 49°
2026-04-24 15:17 34.30822 108.59552 4985 ft 155 kts 47°
2026-04-24 15:17 34.31559 108.60473 4747 ft 153 kts 46°
2026-04-24 15:17 34.32304 108.61396 4339 ft 155 kts 47°
2026-04-24 15:18 34.33060 108.62333 4034 ft 154 kts 47°
2026-04-24 15:18 34.33799 108.63260 4017 ft 155 kts 46°
2026-04-24 15:18 34.34495 108.64259 3975 ft 154 kts 61°
2026-04-24 15:18 34.35052 108.65367 3908 ft 151 kts 54°
2026-04-24 15:19 34.35738 108.66314 3784 ft 148 kts 47°
2026-04-24 15:19 34.36415 108.67233 3605 ft 146 kts 51°
2026-04-24 15:19 34.37112 108.68140 3342 ft 150 kts 49°
2026-04-24 15:19 34.37791 108.69076 2990 ft 146 kts 51°
2026-04-24 15:20 34.38420 108.69987 2705 ft 137 kts 50°
2026-04-24 15:20 34.39026 108.70841 2407 ft 131 kts 49°
2026-04-24 15:20 34.39632 108.71672 2174 ft 139 kts 51°
2026-04-24 15:20 34.40286 108.72609 2156 ft 149 kts 49°
2026-04-24 15:21 34.40956 108.73534 1922 ft 140 kts 49°
2026-04-24 15:21 34.41588 108.74408 1742 ft 136 kts 51°
2026-04-24 15:21 34.42201 108.75246 1593 ft 129 kts 50°
2026-04-24 15:21 34.42717 108.75976 1577 ft 93 kts 49°
2026-04-24 15:22 34.43067 108.76449 1577 ft 55 kts 48°
2026-04-24 15:22 34.43330 108.76662 1577 ft 20 kts 18°
2026-04-24 15:22 34.43338 108.76665 1576 ft 0 kts 18°
2026-04-24 15:23 34.43390 108.76554 1576 ft 14 kts 261°
2026-04-24 15:23 34.43542 108.76366 1576 ft 26 kts 318°
2026-04-24 15:23 34.43609 108.76265 1576 ft 11 kts 253°
2026-04-24 15:24 34.43574 108.76201 1577 ft 0 kts 235°